ISS (ZARYA) 1 25544U 98067A 26177.67101756 .00008101 00000+0 15268-3 0 9990 2 25544 51.6322 253.1475 0004299 235.1263 124.9322 15.49442433573225 POISK 1 36086U 09060A 26177.67101756 .00008101 00000+0 15268-3 0 9998 2 36086 51.6322 253.1475 0004299 235.1263 124.9322 15.49442433571631 CSS (TIANHE) 1 48274U 21035A 26177.89359462 .00022691 00000+0 26302-3 0 9990 2 48274 41.4690 262.9148 0008037 159.7037 200.4122 15.61230203294686 ISS (NAUKA) 1 49044U 21066A 26177.67101756 .00008101 00000+0 15268-3 0 9996 2 49044 51.6322 253.1475 0004299 235.1263 124.9322 15.49442433571684 FREGAT DEB 1 49271U 11037PF 26174.72777939 .00007325 00000+0 12644-1 0 9990 2 49271 51.6248 342.2478 0899580 296.6074 54.5366 12.42164012225869 CSS (WENTIAN) 1 53239U 22085A 26177.89359462 .00022691 00000+0 26302-3 0 9993 2 53239 41.4690 262.9148 0008037 159.7037 200.4122 15.61230203288237 CSS (MENGTIAN) 1 54216U 22143A 26177.89359462 .00022691 00000+0 26302-3 0 9994 2 54216 41.4690 262.9148 0008037 159.7037 200.4122 15.61230203295411 HRC MONOBLOCK CAMERA 1 66052U 98067XR 26177.84779488 .00081172 00000+0 52393-3 0 9990 2 66052 51.6214 229.5002 0002635 349.7718 10.3227 15.75401974 39522 SZ-21 MODULE 1 66515U 25246C 26177.58965000 .00043902 00000+0 26051-3 0 9992 2 66515 41.4719 248.7328 0005018 65.4550 294.6818 15.77194503 35226 SOYUZ-MS 28 1 66664U 25275A 26177.67101756 .00008101 00000+0 15268-3 0 9999 2 66664 51.6322 253.1475 0004299 235.1263 124.9322 15.49442433571782 DUPLEX 1 66906U 98067XS 26177.89910366 .00038919 00000+0 41933-3 0 9994 2 66906 51.6261 240.4036 0002737 261.6380 98.4304 15.63291486 32170 ISS OBJECT XY 1 66912U 98067XY 26177.50612582 .01350350 12904-2 11603-2 0 9994 2 66912 51.6111 224.0219 0010321 354.2805 5.8090 16.12879178 32349 KNACKSAT-2 1 67683U 98067XZ 26177.44486485 .00049509 00000+0 58452-3 0 9999 2 67683 51.6280 247.8833 0008675 257.0459 102.9566 15.60782463 21720 CORAL 1 67684U 98067YA 26177.88354625 .00245170 00000+0 12272-2 0 9999 2 67684 51.6192 237.9951 0009359 312.5151 47.5059 15.80487641 21891 GXIBA-1 1 67685U 98067YB 26177.88482035 .00058136 00000+0 63771-3 0 9992 2 67685 51.6263 244.8165 0009434 256.8122 103.1819 15.62608501 21801 UITMSAT-2 1 67686U 98067YC 26177.55616324 .00072376 00000+0 68697-3 0 9991 2 67686 51.6250 244.8671 0004793 259.2702 100.7754 15.66216971 21771 LEOPARD 1 67687U 98067YD 26177.91464562 .00054572 00000+0 61596-3 0 9996 2 67687 51.6285 245.0319 0005246 242.3698 117.6764 15.61936239 21727 HMU-SAT2 1 67688U 98067YE 26177.55558758 .00061199 00000+0 62439-3 0 9998 2 67688 51.6269 245.6251 0004919 250.0955 109.9510 15.64472126 21680 CREW DRAGON 12 1 67796U 26031A 26177.67101756 .00008101 00000+0 15268-3 0 9997 2 67796 51.6322 253.1475 0004299 235.1263 124.9322 15.49442433625576 PROGRESS-MS 33 1 68319U 26058A 26177.67101756 .00008101 00000+0 15268-3 0 9998 2 68319 51.6322 253.1475 0004299 235.1263 124.9322 15.49442433571837 CYGNUS NG-24 1 68689U 26079A 26177.67101756 .00008101 00000+0 15268-3 0 9991 2 68689 51.6322 253.1475 0004299 235.1263 124.9322 15.49442433678767 PROGRESS-MS 34 1 68837U 26093A 26177.67101756 .00008101 00000+0 15268-3 0 9992 2 68837 51.6322 253.1475 0004299 235.1263 124.9322 15.49442433696492 TIANZHOU-10 1 69049U 26102A 26177.89359462 .00022691 00000+0 26302-3 0 9993 2 69049 41.4690 262.9148 0008037 159.7037 200.4122 15.61230203 7456 SHENZHOU-23 (SZ-23) 1 69180U 26113A 26177.89359462 .00022691 00000+0 26302-3 0 9991 2 69180 41.4690 262.9148 0008037 159.7037 200.4122 15.61230203295147